983  
FPUS82 KCHS 241427  
OPUCHS  
 
TEST   
..KCHS/KSAV GATEWAY OBSERVATIONS
 
TEST  
NATIONAL WEATHER SERVICE CHARLESTON SC  
1000 AM EDT MON JUL 24 2017  
 
NOTE: "FAIR" INDICATES FEW OR NO CLOUDS BELOW 12,000 FEET WITH NO  
SIGNIFICANT WEATHER AND/OR OBSTRUCTIONS TO VISIBILITY.  
 
SCZ050-WAZ558-NCZ071-TXZ119-213-PAZ071-DCZ001-FLZ074-172-MI076-  
NYZ176-178-MAZ016-IL014-TNZ027-NJZ106-GAZ044-MD014-241500-  
   
..GATEWAY OBSERVATIONS FOR CHARLESTON INTERNATIONAL
 
 
 
CITY SKY/WX TMP DP RH WIND PRES REMARKS  
CHAS AIRPORT PTSUNNY 80 74 81 SW13 29.99R  
SEATTLE SUNNY 61 53 75 N8 30.06R  
CHARLOTTE CLOUDY 80 71 74 VRB5 29.97R  
DALLAS DFW CLOUDY 77 74 90 SE5 29.98R  
DALLAS LOVE CLOUDY 76 72 87 CALM 29.99R  
PHILLADELPHIA CLOUDY 78 72 81 SW13 29.76R  
WASH NATIONAL CLOUDY 82 71 69 NW12G18 29.83S  
BALTIMORE PTSUNNY 80 71 74 NW8G20 29.81R  
MIAMI PTSUNNY 88 75 65 SE7 30.09S HX 97  
DETROIT CLOUDY 68 58 70 N9G20 29.92R  
NEWARK HVY RAIN 67 65 93 N21G28 29.76R FOG  
LAGUARDIA LGT RAIN 67 65 93 NE29G36 29.75F FOG  
J F K LGT RAIN 74 72 93 E8 29.74F  
BOSTON LOGAN LGT RAIN 61 55 81 E20 29.93F  
FT. LAUDERDALE PTSUNNY 86 76 71 CALM 30.09R HX 96  
CHICAGO O'HARE PTSUNNY 70 58 65 N18 30.01R  
CHICAGO MIDWAY PTSUNNY 70 60 70 N13 30.00R  
HOUSTON BUSH CLOUDY 83 76 79 SW5 30.00R HX 91  
HOUSTON HOBBY CLOUDY 85 76 74 SW9 30.00R HX 94  
NASHVILLE PTSUNNY 80 67 64 S7 29.98R  
ATLANTA MOSUNNY 82 74 76 VRB6 29.98S  
 

 
 
GAZ044-118-TXZ119-213-NCZ071-DCZ001-MDZ014-506-PAZ021-071-NJZ106-  
NYZ176-178-MAZ106-OHZ011-021-055-MIZ076-KYZ091-ILZ014-INZ047-  
MNZ060-ONZ431-241500-  
   
..GATEWAY OBSERVATIONS FOR SAVANNAH INTERNATIONAL
 
 
 
CITY SKY/WX TMP DP RH WIND PRES REMARKS  
SAVANNAH ARPT CLOUDY 82 74 76 SW7 30.02R  
ATLANTA MOSUNNY 82 74 76 VRB6 29.98S  
CHARLOTTE CLOUDY 80 71 74 VRB5 29.97R  
DALLAS DFW CLOUDY 77 74 90 SE5 29.98R  
HOUSTON BUSH CLOUDY 83 76 79 SW5 30.00R HX 91  
WASH NATIONAL CLOUDY 82 71 69 NW12G18 29.83S  
WASH DULLES MOSUNNY 81 68 64 VRB7 29.83S  
BALTIMORE PTSUNNY 80 71 74 NW8G20 29.81R  
PHILADELPHIA CLOUDY 78 72 81 SW13 29.76R  
NEWARK HVY RAIN 67 65 93 N21G28 29.76R FOG  
LAGUARDIA LGT RAIN 67 65 93 NE29G36 29.75F FOG  
J F K LGT RAIN 74 72 93 E8 29.74F  
BOSTON LGT RAIN 61 55 81 E20 29.93F  
PITTSBURG PTSUNNY 71 67 87 W6 29.87S  
AKRON CLOUDY 71 66 84 N5 29.88R  
CLEVELAND CLOUDY 73 64 73 NW12 29.90R  
CINCINNATI MOSUNNY 77 71 82 W7 29.93R  
COLUMBUS PTSUNNY 73 70 91 NW7 29.89R  
DETROIT CLOUDY 68 58 70 N9G20 29.92R  
CHICAGO O'HARE PTSUNNY 70 58 65 N18 30.01R  
MINNEAPOLIS SUNNY 66 58 75 E3 30.08R  
INDIANAPOLIS MOSUNNY 74 66 76 N7 29.95R  
TORONTO CANADA PTSUNNY 70 59 68 VRB2 29.76R  
 

 
 
 
CLICK HERE TO GO TO PREVIOUS BULLETINS.

The Nexlab SC Page
The Nexlab GA Page Main Text Page